| time (UTC) | temp F | wind direction | speed MPH | gust MPH | rain 1hr in | rain 24hr in | rain mn in | humidity % | barometer mb |
| 20260506233042 | 47 | 0 | 0.0 | 0.0 | 0.00 | 0.33 | 0.00 | 96 | 1015.2 |
| 20260506232041 | 47 | 0 | 0.0 | 0.0 | 0.00 | 0.34 | 0.00 | 97 | 1015.1 |
| 20260506231040 | 47 | 0 | 0.0 | 0.0 | 0.00 | 0.35 | 0.00 | 97 | 1015.1 |
| 20260506230042 | 47 | 0 | 0.0 | 0.0 | 0.00 | 0.36 | 0.00 | 98 | 1015.0 |
| 20260506225041 | 47 | 0 | 0.0 | 0.0 | 0.00 | 0.37 | 0.00 | 98 | 1014.9 |
| 20260506224045 | 46 | 0 | 0.0 | 0.0 | 0.00 | 0.38 | 0.00 | 98 | 1014.8 |
| 20260506223042 | 46 | 0 | 0.0 | 0.0 | 0.00 | 0.39 | 0.00 | 98 | 1014.7 |
| 20260506222042 | 46 | 0 | 0.0 | 0.0 | 0.00 | 0.40 | 0.00 | 98 | 1014.6 |
| 20260506221044 | 46 | 0 | 0.0 | 0.0 | 0.00 | 0.41 | 0.00 | 97 | 1014.6 |
| 20260506215047 | 46 | 0 | 0.0 | 0.0 | 0.00 | 0.43 | 0.43 | 97 | 1014.5 |
| 20260506214048 | 46 | 0 | 0.0 | 0.0 | 0.00 | 0.43 | 0.43 | 96 | 1014.4 |
| 20260506213048 | 47 | 0 | 0.0 | 0.0 | 0.00 | 0.44 | 0.43 | 95 | 1014.3 |
| 20260506212049 | 47 | 0 | 0.0 | 0.0 | 0.00 | 0.45 | 0.43 | 95 | 1014.3 |
| 20260506211047 | 47 | 0 | 0.0 | 0.0 | 0.00 | 0.46 | 0.43 | 94 | 1014.3 |
| 20260506210048 | 47 | 0 | 0.0 | 0.0 | 0.00 | 0.47 | 0.43 | 93 | 1014.1 |
| 20260506205047 | 48 | 0 | 0.0 | 0.0 | 0.00 | 0.49 | 0.43 | 92 | 1014.1 |
| 20260506204047 | 48 | 0 | 0.0 | 0.0 | 0.00 | 0.50 | 0.43 | 91 | 1014.1 |
| 20260506203045 | 48 | 0 | 0.0 | 0.0 | 0.00 | 0.50 | 0.43 | 90 | 1014.1 |
| 20260506202045 | 48 | 0 | 0.0 | 0.0 | 0.00 | 0.51 | 0.43 | 88 | 1014.0 |
| 20260506201050 | 49 | 0 | 0.0 | 0.0 | 0.00 | 0.52 | 0.43 | 86 | 1013.9 |
| 20260506194044 | 49 | 0 | 0.0 | 0.0 | 0.00 | 0.55 | 0.43 | 84 | 1013.7 |
| 20260506193044 | 49 | 0 | 0.0 | 0.0 | 0.00 | 0.55 | 0.43 | 83 | 1013.6 |
| 20260506192042 | 50 | 0 | 0.0 | 0.0 | 0.00 | 0.56 | 0.43 | 82 | 1013.4 |
| 20260506191042 | 50 | 0 | 0.0 | 0.0 | 0.00 | 0.57 | 0.43 | 81 | 1013.3 |
| 20260506190049 | 50 | 0 | 0.0 | 0.0 | 0.00 | 0.57 | 0.43 | 79 | 1013.2 |
| 20260506185043 | 51 | 0 | 0.0 | 0.0 | 0.00 | 0.58 | 0.43 | 76 | 1013.1 |
| 20260506184040 | 51 | 0 | 0.0 | 0.0 | 0.00 | 0.60 | 0.43 | 76 | 1012.9 |
| 20260506183045 | 52 | 0 | 0.0 | 0.0 | 0.00 | 0.61 | 0.43 | 75 | 1012.9 |
| 20260506182044 | 52 | 0 | 0.0 | 0.0 | 0.00 | 0.61 | 0.43 | 75 | 1012.8 |
| 20260506181038 | 52 | 0 | 0.0 | 0.0 | 0.00 | 0.61 | 0.43 | 75 | 1012.6 |
| 20260506175043 | 53 | 0 | 0.0 | 0.0 | 0.00 | 0.63 | 0.43 | 77 | 1012.2 |
| 20260506174043 | 53 | 0 | 0.0 | 0.0 | 0.00 | 0.63 | 0.43 | 78 | 1012.1 |
| 20260506173039 | 52 | 0 | 0.0 | 0.0 | 0.00 | 0.64 | 0.43 | 79 | 1012.0 |
| 20260506172047 | 52 | 0 | 0.0 | 0.0 | 0.00 | 0.64 | 0.43 | 80 | 1012.0 |
| 20260506170038 | 53 | 0 | 0.0 | 0.0 | 0.00 | 0.64 | 0.43 | 77 | 1011.9 |
| 20260506165038 | 53 | 0 | 0.0 | 0.0 | 0.00 | 0.64 | 0.43 | 76 | 1011.8 |
| 20260506164040 | 53 | 0 | 0.0 | 0.0 | 0.00 | 0.64 | 0.43 | 75 | 1011.8 |
| 20260506163040 | 54 | 0 | 0.0 | 0.0 | 0.00 | 0.64 | 0.43 | 75 | 1011.7 |
| 20260506161038 | 55 | 0 | 0.0 | 0.0 | 0.00 | 0.64 | 0.43 | 75 | 1011.7 |
| 20260506160039 | 55 | 0 | 0.0 | 0.0 | 0.00 | 0.64 | 0.43 | 74 | 1011.5 |
| 20260506154043 | 55 | 0 | 0.0 | 0.0 | 0.00 | 0.64 | 0.43 | 77 | 1011.4 |
| 20260506153040 | 55 | 0 | 0.0 | 0.0 | 0.00 | 0.64 | 0.43 | 78 | 1011.4 |
| 20260506152040 | 56 | 0 | 0.0 | 0.0 | 0.00 | 0.64 | 0.43 | 78 | 1011.4 |
| 20260506151040 | 55 | 0 | 0.0 | 0.0 | 0.00 | 0.64 | 0.43 | 82 | 1011.3 |
| 20260506150038 | 55 | 0 | 0.0 | 0.0 | 0.00 | 0.64 | 0.43 | 84 | 1011.3 |
| 20260506145040 | 54 | 0 | 0.0 | 0.0 | 0.00 | 0.64 | 0.43 | 83 | 1011.3 |
| 20260506144039 | 54 | 0 | 0.0 | 0.0 | 0.00 | 0.64 | 0.43 | 84 | 1011.3 |
| 20260506143040 | 54 | 0 | 0.0 | 0.0 | 0.00 | 0.64 | 0.43 | 86 | 1011.3 |
| 20260506142039 | 54 | 0 | 0.0 | 0.0 | 0.00 | 0.64 | 0.43 | 86 | 1011.3 |
| 20260506141038 | 54 | 0 | 0.0 | 0.0 | 0.00 | 0.64 | 0.43 | 85 | 1011.3 |
| 20260506140040 | 54 | 0 | 0.0 | 0.0 | 0.00 | 0.64 | 0.43 | 86 | 1011.3 |
| 20260506134040 | 53 | 0 | 0.0 | 0.0 | 0.00 | 0.64 | 0.43 | 84 | 1011.3 |
| 20260506131039 | 53 | 0 | 0.0 | 0.0 | 0.00 | 0.64 | 0.43 | 87 | 1011.3 |
| 20260506130039 | 53 | 0 | 0.0 | 0.0 | 0.00 | 0.64 | 0.43 | 88 | 1011.2 |
| 20260506125040 | 53 | 0 | 0.0 | 0.0 | 0.00 | 0.64 | 0.43 | 91 | 1011.2 |
| 20260506124037 | 52 | 0 | 0.0 | 0.0 | 0.00 | 0.64 | 0.43 | 92 | 1011.1 |
| 20260506123042 | 51 | 0 | 0.0 | 0.0 | 0.00 | 0.64 | 0.43 | 92 | 1011.1 |
| 20260506122040 | 51 | 0 | 0.0 | 0.0 | 0.00 | 0.64 | 0.43 | 91 | 1011.1 |
| 20260506120038 | 52 | 0 | 0.0 | 0.0 | 0.00 | 0.64 | 0.43 | 90 | 1011.0 |
| 20260506115038 | 52 | 0 | 0.0 | 0.0 | 0.01 | 0.64 | 0.43 | 94 | 1010.9 |
| 20260506114038 | 51 | 0 | 0.0 | 0.0 | 0.01 | 0.64 | 0.43 | 95 | 1011.0 |
| 20260506113039 | 51 | 0 | 0.0 | 0.0 | 0.01 | 0.64 | 0.43 | 96 | 1011.0 |
| 20260506112037 | 51 | 0 | 0.0 | 0.0 | 0.02 | 0.64 | 0.43 | 97 | 1011.1 |
| 20260506111039 | 51 | 0 | 0.0 | 0.0 | 0.02 | 0.64 | 0.43 | 98 | 1011.1 |
| 20260506105039 | 50 | 0 | 0.0 | 0.0 | 0.02 | 0.64 | 0.43 | 98 | 1011.1 |
| 20260506104037 | 49 | 0 | 0.0 | 0.0 | 0.02 | 0.63 | 0.42 | 98 | 1011.1 |
| 20260506103039 | 49 | 0 | 0.0 | 0.0 | 0.02 | 0.63 | 0.42 | 98 | 1011.1 |
| 20260506102039 | 49 | 0 | 0.0 | 0.0 | 0.02 | 0.63 | 0.42 | 99 | 1011.0 |
| 20260506100037 | 49 | 0 | 0.0 | 0.0 | 0.02 | 0.62 | 0.41 | 10 | 1010.8 |
| 20260506095039 | 48 | 0 | 0.0 | 0.0 | 0.02 | 0.62 | 0.41 | 10 | 1010.8 |
| 20260506093039 | 48 | 0 | 0.0 | 0.0 | 0.01 | 0.61 | 0.40 | 10 | 1010.7 |
| 20260506092038 | 48 | 0 | 0.0 | 0.0 | 0.01 | 0.62 | 0.40 | 10 | 1010.6 |
| 20260506091039 | 48 | 0 | 0.0 | 0.0 | 0.01 | 0.61 | 0.39 | 10 | 1010.6 |
| 20260506090039 | 48 | 0 | 0.0 | 0.0 | 0.01 | 0.61 | 0.39 | 10 | 1010.4 |
| 20260506085040 | 47 | 0 | 0.0 | 0.0 | 0.01 | 0.61 | 0.39 | 10 | 1010.4 |
| 20260506084038 | 47 | 0 | 0.0 | 0.0 | 0.02 | 0.61 | 0.39 | 10 | 1010.3 |
| 20260506083037 | 47 | 0 | 0.0 | 0.0 | 0.02 | 0.62 | 0.39 | 10 | 1010.2 |
| 20260506082039 | 47 | 0 | 0.0 | 0.0 | 0.02 | 0.64 | 0.39 | 10 | 1010.1 |
| 20260506081039 | 47 | 0 | 0.0 | 0.0 | 0.02 | 0.64 | 0.39 | 10 | 1010.1 |
| 20260506073038 | 47 | 0 | 0.0 | 0.0 | 0.02 | 0.62 | 0.38 | 10 | 1009.8 |
| 20260506072036 | 47 | 0 | 0.0 | 0.0 | 0.02 | 0.62 | 0.38 | 10 | 1009.8 |
| 20260506062037 | 46 | 0 | 0.0 | 0.0 | 0.02 | 0.60 | 0.35 | 10 | 1009.5 |
| 20260506051038 | 46 | 0 | 0.0 | 0.0 | 0.02 | 0.59 | 0.33 | 10 | 1009.4 |
| 20260506045036 | 46 | 0 | 0.0 | 0.0 | 0.03 | 0.59 | 0.32 | 10 | 1009.4 |
| 20260506044037 | 46 | 0 | 0.0 | 0.0 | 0.02 | 0.58 | 0.31 | 10 | 1009.3 |
| 20260506043039 | 46 | 0 | 0.0 | 0.0 | 0.02 | 0.58 | 0.31 | 10 | 1009.3 |
| 20260506042037 | 46 | 0 | 0.0 | 0.0 | 0.03 | 0.58 | 0.31 | 10 | 1009.3 |
| 20260506041036 | 46 | 0 | 0.0 | 0.0 | 0.03 | 0.57 | 0.31 | 10 | 1009.3 |
| 20260506040039 | 46 | 0 | 0.0 | 0.0 | 0.03 | 0.57 | 0.31 | 10 | 1009.3 |
| 20260506035037 | 46 | 0 | 0.0 | 0.0 | 0.02 | 0.57 | 0.30 | 10 | 1009.3 |
| 20260506034038 | 46 | 0 | 0.0 | 0.0 | 0.02 | 0.56 | 0.29 | 10 | 1009.4 |
| 20260506032037 | 46 | 0 | 0.0 | 0.0 | 0.04 | 0.56 | 0.29 | 10 | 1009.4 |
| 20260506031036 | 46 | 0 | 0.0 | 0.0 | 0.04 | 0.55 | 0.28 | 10 | 1009.5 |
| 20260506030037 | 46 | 0 | 0.0 | 0.0 | 0.04 | 0.54 | 0.28 | 10 | 1009.6 |
| 20260506025038 | 46 | 0 | 0.0 | 0.0 | 0.05 | 0.54 | 0.28 | 10 | 1009.6 |
| 20260506024037 | 46 | 0 | 0.0 | 0.0 | 0.06 | 0.54 | 0.28 | 10 | 1009.7 |
| 20260506023038 | 46 | 0 | 0.0 | 0.0 | 0.06 | 0.54 | 0.27 | 10 | 1009.7 |
| 20260506022037 | 47 | 0 | 0.0 | 0.0 | 0.06 | 0.53 | 0.26 | 10 | 1009.8 |
| 20260506020037 | 47 | 0 | 0.0 | 0.0 | 0.06 | 0.51 | 0.24 | 10 | 1009.8 |
| 20260506015037 | 47 | 0 | 0.0 | 0.0 | 0.06 | 0.50 | 0.24 | 10 | 1009.8 |
| 20260506014039 | 47 | 0 | 0.0 | 0.0 | 0.06 | 0.50 | 0.23 | 10 | 1009.9 |
| 20260506013038 | 47 | 0 | 0.0 | 0.0 | 0.06 | 0.49 | 0.22 | 10 | 1009.9 |
| 20260506012037 | 47 | 0 | 0.0 | 0.0 | 0.06 | 0.48 | 0.21 | 10 | 1009.9 |
| 20260506011038 | 47 | 0 | 0.0 | 0.0 | 0.06 | 0.47 | 0.20 | 10 | 1009.9 |
| 20260506010036 | 48 | 0 | 0.0 | 0.0 | 0.06 | 0.46 | 0.19 | 10 | 1010.0 |
| 20260506005037 | 48 | 0 | 0.0 | 0.0 | 0.07 | 0.45 | 0.18 | 10 | 1010.0 |
| 20260506004036 | 48 | 0 | 0.0 | 0.0 | 0.08 | 0.45 | 0.18 | 10 | 1010.1 |
| 20260506003037 | 48 | 0 | 0.0 | 0.0 | 0.08 | 0.44 | 0.17 | 10 | 1010.1 |
| 20260506002038 | 48 | 0 | 0.0 | 0.0 | 0.08 | 0.43 | 0.17 | 10 | 1010.2 |
| 20260506001037 | 48 | 0 | 0.0 | 0.0 | 0.08 | 0.43 | 0.16 | 10 | 1010.2 |
| 20260506000047 | 48 | 0 | 0.0 | 0.0 | 0.08 | 0.41 | 0.14 | 10 | 1010.4 |
| 20260505235043 | 48 | 0 | 0.0 | 0.0 | 0.07 | 0.39 | 0.13 | 10 | 1010.5 |
| 20260505234043 | 48 | 0 | 0.0 | 0.0 | 0.06 | 0.38 | 0.11 | 10 | 1010.5 |